Wind_Speed
14 12 12 15 19 19 18 17 18 20 20 19 17 16 19 21 21 21 22 21 21 20 20 19 16 16 17 18 18 18 18 18 18 17 16 16 15 15 14 13 13 13 13 14 13 13 13 13 12 11 11 11 11 11 11 10 11 11 10 9 9 9 8 7 4 3 4 6 6 5 3 3 2 2 4 6 5 5 5 6 6 5 5 5 5
15 14 14 17 20 21 20 16 17 20 20 19 19 18 20 21 21 22 21 20 20 20 19 19 17 18 18 17 17 17 17 18 19 18 17 16 15 15 15 14 13 13 13 13 12 12 12 11 11 10 10 10 10 10 11 11 11 12 11 11 10 9 9 7 6 5 4 4 4 4 4 4 4 3 3 5 5 5 5 5 5 5 5 5 6
14 16 18 19 20 21 19 15 15 17 18 20 19 20 22 21 22 23 21 20 21 20 20 18 18 19 18 17 17 16 16 18 19 19 18 16 15 15 15 13 13 13 13 12 11 11 11 11 11 10 10 11 10 10 11 11 10 9 10 11 11 10 10 8 8 8 8 7 5 5 5 5 4 3 1 4 5 4 3 3 2 3 5 6 6
12 14 17 19 21 21 18 16 15 15 17 20 20 20 23 23 24 25 23 22 21 20 20 18 19 20 19 18 17 17 17 18 18 19 18 16 16 16 15 14 13 12 12 11 10 10 11 11 11 11 11 11 11 10 10 10 10 9 8 8 10 11 11 10 9 8 8 8 7 6 6 6 5 4 2 4 5 4 4 3 3 3 5 6 7
12 12 14 16 20 21 19 16 16 15 17 21 21 22 25 25 26 26 24 23 21 20 20 20 20 21 19 19 18 18 18 16 16 17 17 16 16 15 15 14 13 12 11 9 9 10 11 11 11 10 11 11 11 11 11 10 9 8 7 8 9 11 12 11 9 8 8 8 8 7 7 6 6 6 5 5 6 6 6 5 5 5 6 7 8
13 13 13 14 17 21 20 17 16 16 19 23 24 24 26 27 28 26 24 23 22 20 20 21 22 21 19 19 19 18 17 16 15 16 15 15 14 14 14 14 13 12 10 9 9 10 11 11 12 11 10 12 13 12 10 10 8 7 8 9 10 11 12 11 10 10 9 8 8 7 7 7 7 8 8 7 7 8 8 8 8 9 9 9 9
14 15 15 14 14 17 19 18 16 17 20 22 24 25 27 28 27 26 25 23 21 20 21 22 22 21 21 21 20 19 18 17 16 15 13 13 12 12 12 12 12 12 11 9 9 10 10 11 12 11 11 12 13 10 8 8 7 7 7 9 10 11 11 11 11 11 11 10 9 8 7 8 8 9 10 9 10 11 11 12 12 12 12 12 12
15 16 17 15 12 14 17 17 15 16 18 20 24 26 28 27 25 26 26 23 22 22 23 22 22 23 24 23 21 20 20 18 16 14 13 11 10 10 12 12 12 12 12 10 9 9 10 10 11 12 13 11 9 7 7 7 7 8 8 9 10 10 10 10 11 12 11 11 11 10 9 9 10 11 12 12 13 13 13 14 15 14 15 16 16
16 16 17 16 13 12 14 16 15 16 17 21 24 28 29 27 26 27 26 24 24 25 22 20 23 26 25 23 22 22 20 17 16 15 12 10 9 10 12 13 13 13 13 12 11 10 9 10 12 14 13 10 8 8 8 8 6 7 8 8 9 10 9 10 10 10 10 11 11 11 11 12 12 13 14 14 14 14 15 17 19 18 18 19 19
20 18 15 14 13 11 13 16 16 17 20 22 24 28 30 28 28 29 27 26 26 25 23 21 23 27 25 23 23 21 19 17 16 15 13 10 9 11 13 13 14 14 14 13 12 12 12 12 14 14 12 11 10 8 8 8 7 7 8 8 7 7 7 8 8 8 8 9 10 11 12 13 14 14 14 15 15 16 17 19 20 19 19 21 22
23 19 14 13 13 11 13 16 16 17 21 24 24 27 29 30 31 30 29 29 28 26 24 22 23 26 25 23 22 20 18 18 17 15 14 12 11 11 13 15 15 14 13 13 14 15 15 14 14 13 12 11 10 9 8 7 7 7 7 8 7 7 7 7 8 9 9 9 9 10 11 12 12 13 13 14 14 16 18 19 20 20 20 22 23
23 20 17 16 14 13 13 14 15 18 23 26 26 28 29 30 32 30 29 30 29 27 26 23 23 25 23 22 22 20 18 18 17 15 15 14 12 11 12 14 15 14 13 14 16 16 15 13 13 12 11 10 9 8 8 7 6 6 6 6 6 7 7 7 7 9 10 10 9 9 10 11 11 12 13 14 14 15 16 17 18 19 20 21 23
22 21 19 18 16 14 13 14 16 20 25 28 28 30 31 31 32 33 31 30 29 28 26 24 23 24 22 21 21 20 19 18 17 16 15 14 13 12 12 14 15 14 14 14 15 15 13 11 11 9 8 8 7 7 7 7 6 5 5 5 6 6 7 8 8 8 9 10 9 9 10 11 11 13 14 14 14 15 15 16 17 18 19 20 22
19 18 18 18 16 13 12 17 21 23 26 30 32 33 32 31 33 34 33 31 30 29 26 24 24 23 21 20 20 20 19 17 16 16 15 14 13 13 13 14 14 14 14 13 13 12 11 9 9 8 7 6 5 5 5 5 6 6 6 7 7 8 8 9 10 10 10 10 10 11 12 12 13 14 15 16 16 17 18 18 19 20 21 21 21
15 15 14 14 12 10 13 20 24 26 28 32 34 34 33 32 33 34 33 32 31 29 26 24 23 22 20 20 20 20 19 17 15 15 15 15 14 14 14 15 15 15 15 14 13 12 10 8 7 7 6 5 4 4 4 4 5 6 7 8 9 10 10 10 11 12 12 13 13 14 14 15 16 18 19 20 21 21 21 21 21 21 22 21 20
13 12 12 12 7 6 12 15 20 26 31 32 31 31 32 30 30 32 33 32 31 28 25 23 23 23 21 20 20 19 18 16 14 13 14 16 16 15 16 16 17 17 17 17 15 13 12 10 8 7 7 6 6 5 4 5 7 9 9 10 11 11 12 12 12 13 14 15 16 17 18 19 20 22 22 23 23 22 22 21 20 20 21 22 20
15 12 11 10 5 5 11 13 14 19 23 24 24 25 27 26 25 27 30 31 30 28 26 26 26 24 22 21 20 19 18 17 15 13 13 14 14 15 17 18 18 18 18 18 17 15 13 11 10 8 8 8 8 7 5 6 7 10 11 12 13 14 14 14 14 15 16 17 18 19 20 20 20 21 21 20 20 19 18 17 16 16 17 18 17
17 14 12 9 5 5 13 15 13 14 17 19 20 21 21 21 22 24 27 29 30 29 29 29 28 25 22 21 20 19 19 19 17 15 14 13 13 15 17 18 19 18 16 14 13 12 11 10 9 8 8 8 8 8 8 9 11 14 16 16 16 16 16 16 17 18 18 18 18 18 18 17 17 17 17 16 16 16 15 14 14 15 15 16 16
14 14 13 10 7 6 14 15 9 11 19 23 23 22 20 20 22 26 29 30 30 31 31 30 28 26 23 21 19 17 18 19 18 17 16 15 14 15 16 17 16 15 12 10 8 8 8 9 9 8 8 9 11 13 15 17 18 19 19 17 16 17 18 18 18 17 17 16 15 15 15 15 15 15 15 15 14 14 14 14 14 14 14 14 14
13 11 10 10 11 9 10 15 14 17 22 24 25 26 26 27 28 30 32 33 33 33 31 28 25 23 21 19 17 16 17 18 18 17 16 15 14 13 13 14 13 12 10 8 7 7 9 10 10 11 12 13 14 15 17 17 17 17 17 17 17 18 19 18 15 14 14 14 14 14 14 14 14 14 13 13 13 12 12 11 12 12 12 12 12
13 11 10 10 12 13 11 13 18 23 25 25 25 27 27 28 29 27 27 29 31 30 27 24 23 21 19 18 18 17 17 17 17 17 15 14 13 12 12 12 12 12 12 10 9 10 12 13 13 13 13 12 12 12 13 13 14 14 14 13 13 13 14 13 13 13 13 13 12 13 12 12 12 12 12 12 12 11 11 10 10 10 10 10 11
14 13 13 12 13 13 12 14 18 22 24 24 24 24 23 22 22 19 17 18 21 22 21 20 20 21 20 19 18 18 18 16 15 14 12 11 10 9 9 10 10 11 11 12 12 14 15 14 13 12 11 10 9 9 9 10 10 10 9 9 9 9 10 11 11 11 11 10 10 10 11 11 11 11 12 12 12 11 11 11 11 10 10 9 9
12 13 14 14 14 13 12 12 13 16 17 16 13 12 12 12 11 10 10 10 12 15 16 16 17 18 18 17 16 16 15 14 13 13 12 12 12 11 11 10 10 10 10 12 14 15 14 13 11 10 9 9 8 7 7 8 8 8 8 8 8 8 8 8 8 9 9 10 11 11 11 10 10 10 11 11 11 11 11 11 11 11 10 9 8
12 13 15 15 16 15 13 11 10 10 11 10 6 4 4 4 3 5 9 11 11 11 12 12 13 13 13 13 13 13 13 14 15 15 15 16 16 15 14 13 12 12 11 12 13 13 12 11 10 10 9 9 8 8 7 7 6 6 6 5 5 6 7 7 9 9 10 11 11 11 11 11 10 10 10 11 11 10 10 10 11 10 9 8 8
12 14 15 16 17 16 15 13 12 10 10 8 8 9 10 10 9 10 12 13 13 12 11 11 11 11 11 12 13 13 13 14 16 16 16 16 15 14 13 13 12 12 12 11 11 11 11 10 10 9 9 8 7 6 5 4 3 3 3 4 5 6 7 9 10 11 11 11 11 11 10 10 10 10 9 9 9 8 8 9 9 9 9 9 9
14 15 16 15 15 15 16 16 14 13 12 11 10 10 10 11 11 11 11 10 10 11 12 12 11 12 12 13 14 14 13 12 11 11 12 12 12 11 12 12 12 12 12 11 11 11 11 10 9 8 7 6 5 4 3 2 2 2 2 4 5 7 9 10 10 10 9 9 9 9 9 9 9 8 7 7 6 6 7 7 8 8 9 9 11
16 17 16 15 14 14 15 15 14 13 13 12 12 13 12 12 13 14 12 11 11 11 11 11 12 13 13 14 13 12 11 9 7 6 6 7 8 9 11 12 12 13 13 12 12 12 11 10 9 8 7 5 4 3 3 2 1 2 4 6 8 9 9 9 9 9 8 8 8 8 8 7 7 6 6 5 5 5 5 6 7 7 8 10 11
12 15 16 16 16 16 16 16 15 13 12 11 10 11 11 10 11 12 12 10 9 9 10 11 12 11 11 10 9 8 6 4 3 2 3 4 5 7 9 10 12 13 12 12 12 12 11 10 10 8 6 5 4 3 2 1 2 4 6 7 8 8 9 9 9 9 8 8 8 8 7 6 6 5 5 5 4 5 6 7 7 8 10 11 11
14 13 13 13 14 15 16 16 16 15 13 11 9 9 10 9 9 10 10 10 9 8 8 9 9 8 7 6 5 3 2 2 2 1 0 2 4 5 6 7 9 10 11 11 11 12 12 11 10 8 6 4 3 2 1 2 4 5 6 7 7 8 9 9 9 9 9 9 8 7 7 6 5 5 5 5 5 7 8 8 8 9 11 11 12
19 18 17 15 13 12 13 14 15 15 14 12 10 8 8 8 8 9 10 10 10 9 8 7 7 5 4 3 2 2 4 4 3 2 2 4 5 5 6 6 7 8 9 10 10 11 11 11 9 7 6 4 3 2 2 4 5 5 5 6 7 8 9 9 9 9 9 8 8 7 7 7 7 7 7 7 7 8 9 9 9 10 11 11 12
20 20 20 20 19 17 15 14 14 13 13 13 11 9 6 6 6 7 8 9 9 9 9 8 6 4 3 1 2 3 3 0 2 4 5 7 7 8 8 9 9 9 9 9 9 10 10 10 9 8 6 4 3 3 4 4 5 5 5 6 7 7 7 7 7 8 8 8 8 7 7 7 7 8 8 9 9 9 9 9 9 10 10 10 10
18 17 17 17 18 18 17 15 12 12 13 13 13 12 8 5 5 7 7 8 8 8 8 7 6 5 4 3 3 3 4 6 8 8 9 9 10 10 11 11 11 11 9 7 8 10 10 9 8 7 5 4 4 4 4 4 4 4 4 5 4 4 5 6 7 7 6 6 7 7 6 7 8 9 10 10 10 9 9 9 9 9 8 8 9
16 16 15 14 14 14 14 13 11 11 12 14 15 14 12 9 7 7 7 8 8 8 8 7 6 5 6 7 8 8 8 10 11 11 11 11 11 11 12 12 11 11 9 7 7 9 9 8 7 5 4 3 2 2 1 2 2 2 3 3 4 5 5 6 7 6 6 6 7 7 7 8 9 9 10 10 9 8 8 8 8 9 9 9 10
15 15 14 12 11 11 13 12 9 9 11 13 13 13 13 12 10 8 7 8 9 9 8 8 8 8 9 11 12 11 11 11 11 10 9 9 9 8 7 7 7 7 7 6 7 8 8 7 6 5 3 2 2 2 3 3 4 5 5 6 6 5 5 5 6 6 6 7 7 7 7 8 9 9 9 8 8 8 8 8 9 9 10 11 12
15 15 13 12 10 10 11 12 9 7 8 10 11 11 12 12 10 8 7 8 10 11 11 11 10 10 10 12 13 12 11 10 9 8 7 6 6 4 2 1 1 2 4 6 7 7 7 7 7 7 6 5 5 5 5 6 6 7 7 7 7 7 7 6 6 6 6 6 6 6 6 7 7 8 8 8 8 8 8 9 10 11 11 12 12
15 15 13 11 10 10 9 9 8 6 6 7 8 9 10 10 8 7 7 8 10 11 11 11 11 11 12 12 12 11 10 9 8 7 6 5 4 3 4 4 1 4 8 10 10 11 10 9 8 8 7 6 6 7 7 7 7 8 8 8 8 8 8 7 6 6 5 5 5 6 7 7 7 7 8 8 8 9 9 10 11 12 12 12 12
16 16 14 12 10 9 9 8 6 5 5 5 6 6 7 8 6 5 7 8 9 10 10 10 10 11 12 12 11 9 9 8 7 6 5 4 2 4 5 2 5 10 12 12 11 10 10 9 8 8 7 7 7 7 6 6 7 7 7 6 5 4 4 5 5 5 5 5 6 7 8 8 8 7 7 8 8 9 10 11 12 13 12 12 12
15 16 16 14 11 9 8 7 7 6 5 5 4 4 5 6 5 5 6 7 7 8 8 8 8 9 10 11 9 7 6 6 5 4 3 2 3 4 1 6 11 12 11 11 10 9 9 9 8 8 8 7 7 7 6 6 6 6 5 4 3 3 5 6 6 6 5 5 6 7 7 7 7 7 7 8 9 11 12 12 13 13 12 11 12
13 14 15 15 14 12 8 6 6 7 6 5 5 4 4 5 6 5 5 7 7 6 6 5 5 5 6 7 5 4 2 2 0 0 0 1 3 2 5 10 11 10 10 10 9 7 8 8 9 8 8 8 8 8 7 7 7 6 7 7 6 6 7 8 7 6 5 4 5 5 6 6 6 7 7 8 10 11 12 12 12 11 10 10 10
12 13 13 13 15 15 12 8 5 5 6 6 5 4 4 5 7 6 5 6 7 6 5 4 3 3 3 3 2 1 2 3 4 3 3 2 0 4 7 9 9 9 9 9 8 8 8 9 9 9 9 9 8 8 7 7 7 7 8 8 7 7 6 5 4 3 3 4 4 5 5 5 6 7 8 8 9 11 11 11 12 11 9 8 8
11 13 12 11 11 13 14 11 7 4 5 6 5 4 4 5 7 7 6 5 5 4 3 3 3 2 2 2 1 1 4 5 3 3 3 2 3 6 7 7 7 7 7 8 9 8 8 9 9 9 8 8 8 8 7 7 7 7 7 6 6 5 4 3 3 3 4 3 3 4 4 4 5 6 7 8 9 10 10 11 11 10 8 8 8
8 10 11 10 9 10 12 13 10 6 3 3 4 4 4 6 7 6 5 3 2 2 3 4 5 5 4 4 2 2 3 2 3 4 3 2 3 5 6 6 6 6 6 8 9 9 8 8 8 8 7 7 7 7 7 7 6 6 6 5 5 4 4 4 4 4 4 3 3 3 3 3 4 6 7 8 9 10 10 11 11 9 8 8 8
6 7 9 8 8 8 10 12 14 12 6 1 3 4 4 4 5 5 4 2 1 1 1 3 5 6 6 4 2 4 4 1 2 2 2 2 2 4 5 5 4 5 6 7 8 8 8 7 6 6 6 6 5 5 5 5 5 5 5 4 4 3 3 3 4 4 4 4 3 2 3 4 5 6 8 8 9 10 11 11 10 9 8 7 7
6 6 6 6 6 7 8 9 12 14 10 4 2 1 2 1 0 1 2 1 2 1 1 3 5 6 6 4 3 4 4 4 3 3 1 1 2 3 4 4 3 4 5 6 6 7 7 6 5 5 5 5 4 4 4 4 3 3 3 2 2 2 2 2 3 3 4 3 3 3 3 4 5 6 7 8 9 10 10 10 10 11 9 8 7
7 6 5 5 5 7 8 8 8 10 10 7 2 2 4 4 3 2 1 1 2 3 4 4 5 7 6 3 2 3 4 4 6 6 4 2 1 1 1 2 3 4 5 6 7 6 6 5 4 4 4 4 3 3 3 3 2 2 1 1 0 1 1 1 2 2 3 3 3 3 4 4 5 6 7 8 9 10 9 9 10 10 10 8 8
7 7 5 4 6 7 9 8 7 6 6 6 3 2 4 5 4 3 3 3 4 4 4 4 5 4 3 2 1 3 4 4 5 6 6 4 4 4 4 3 3 4 5 5 6 6 6 5 4 3 3 3 2 2 2 1 1 0 0 0 1 1 2 2 2 2 2 3 3 4 4 5 6 7 9 10 10 10 10 10 10 11 10 9 9
6 6 6 6 6 7 8 7 6 5 5 5 4 4 4 5 4 4 4 4 4 4 3 4 4 3 2 2 3 5 6 6 6 6 7 7 7 7 6 5 5 5 5 5 5 5 6 5 4 3 3 3 2 2 1 1 1 1 1 2 2 2 3 3 3 3 3 3 4 5 5 6 7 9 10 11 11 12 12 12 12 13 13 12 11
4 6 7 7 7 7 7 6 5 5 5 6 6 6 5 5 5 5 5 5 5 4 5 6 6 6 5 5 6 7 7 7 7 7 7 7 7 6 5 5 5 6 6 6 6 6 6 6 5 4 3 3 3 2 2 2 2 2 2 2 2 3 4 4 4 4 4 4 5 6 6 7 8 9 10 11 12 13 13 14 14 14 14 13 13
5 6 7 8 8 8 7 6 6 6 6 5 6 7 7 6 5 5 5 5 5 5 6 6 6 6 5 6 7 8 8 8 8 8 7 6 4 4 4 4 4 5 6 6 7 7 7 6 6 5 4 3 3 3 3 3 2 2 2 2 2 3 3 4 4 4 5 5 6 6 6 7 8 9 10 11 12 13 14 15 14 14 13 12 11
6 6 7 7 7 8 8 8 7 8 7 6 6 7 7 7 7 6 6 5 6 7 8 8 7 7 7 9 10 11 11 10 9 8 7 5 4 4 4 4 3 3 4 6 7 8 8 8 7 6 5 5 4 4 4 4 3 2 1 1 2 2 2 3 3 3 3 4 4 5 6 7 8 9 10 12 13 14 15 15 15 14 12 10 9
7 7 7 7 6 7 8 9 9 8 8 7 7 7 8 8 8 7 7 7 8 8 10 11 11 10 9 10 12 14 14 12 10 9 7 6 5 5 5 4 4 4 3 4 6 7 9 9 8 8 7 7 6 6 6 4 3 2 2 2 2 2 1 1 2 2 2 3 3 4 6 7 8 9 11 12 13 14 15 14 13 12 9 7 5
Wind_Direction
280 280 272 263 263 261 257 253 248 244 238 226 218 213 206 201 202 203 198 199 202 200 207 213 208 206 202 196 197 198 197 198 197 195 197 199 199 201 205 207 207 209 212 215 215 213 214 213 213 215 219 223 223 221 217 208 202 197 198 211 222 228 230 231 232 212 181 182 183 183 212 242 240 242 242 233 235 259 282 294 292 277 262 261 263
274 271 264 255 254 257 256 251 244 244 239 226 216 209 203 199 202 202 197 202 204 199 202 206 207 210 206 199 200 201 200 200 200 198 198 199 200 201 202 202 204 205 208 211 211 210 207 202 204 207 209 212 212 212 213 207 200 196 198 211 221 220 216 224 240 245 241 232 218 219 239 249 249 261 264 245 240 259 282 293 292 279 272 270 266
273 268 260 253 251 251 249 245 242 241 233 223 214 206 201 198 199 197 193 200 204 202 201 200 204 210 208 204 206 207 205 203 201 201 199 199 200 198 198 200 205 206 206 206 205 204 200 193 197 201 200 203 202 204 209 208 207 205 201 209 223 223 217 225 245 262 268 264 262 276 279 269 258 264 265 237 236 244 252 262 269 262 267 272 269
271 269 261 254 250 247 245 241 239 233 221 216 212 205 200 197 195 194 193 195 199 203 200 196 203 210 210 212 212 208 205 201 199 199 199 200 199 196 196 199 204 205 205 205 200 196 193 191 195 198 194 197 199 200 205 206 203 200 196 207 222 223 221 228 244 262 270 267 270 285 287 275 261 255 238 220 221 217 208 215 233 244 253 261 264
267 264 261 255 250 248 246 242 241 234 217 212 210 203 198 195 192 192 194 193 194 198 196 195 204 209 210 212 208 201 199 197 193 194 196 197 195 193 196 198 199 199 201 202 194 187 187 187 192 195 192 195 195 189 188 190 191 194 200 214 220 218 218 226 240 250 257 265 272 281 283 272 255 248 247 232 223 222 224 234 246 252 257 260 263
275 266 263 257 252 250 247 244 245 238 219 209 206 200 193 191 190 190 192 191 189 191 192 197 205 208 207 205 198 192 190 186 183 184 186 187 185 185 190 192 192 193 195 195 188 186 187 183 185 190 191 189 183 174 174 181 189 200 209 214 215 216 218 223 233 240 246 259 267 272 282 279 260 249 250 248 244 245 251 259 264 265 268 272 274
290 275 270 264 254 248 247 247 245 240 228 212 201 194 190 188 187 189 189 186 184 187 193 200 205 204 198 192 188 186 180 174 172 174 175 175 175 179 184 186 185 186 190 190 187 189 189 186 187 183 175 174 173 170 174 186 198 208 210 211 214 216 218 220 228 235 240 246 248 255 272 277 266 255 252 254 258 261 262 264 267 270 273 276 278
306 286 278 274 264 253 252 253 246 241 234 214 198 191 190 189 187 186 185 181 180 186 193 196 196 191 187 185 184 181 175 171 172 172 170 172 179 186 188 186 183 182 184 186 186 188 188 190 190 176 163 164 171 171 176 190 208 215 210 208 210 212 216 223 231 235 238 243 246 252 263 270 268 262 257 257 260 267 273 275 276 279 280 280 279
327 306 292 286 280 266 256 254 247 235 221 206 195 188 188 191 188 183 181 178 180 186 188 187 185 183 180 180 180 178 175 174 173 171 169 170 180 186 183 181 179 178 181 182 182 183 184 182 175 165 158 162 165 159 161 174 189 198 197 196 203 213 220 226 232 234 238 246 249 252 258 263 266 265 264 265 270 278 283 282 281 283 282 281 278
334 322 306 300 296 279 254 247 245 229 209 200 193 185 185 190 187 180 178 175 177 183 182 179 181 181 178 175 175 177 176 175 173 172 171 168 171 173 173 175 177 179 181 181 176 173 168 159 153 152 155 162 163 161 163 169 173 177 181 183 190 201 208 216 227 233 241 248 249 252 258 264 267 267 268 270 274 277 277 277 279 281 281 280 280
336 331 324 322 314 294 265 253 247 228 204 194 191 184 183 187 184 179 179 176 175 180 182 178 179 180 177 173 174 177 177 176 176 175 172 166 163 166 171 175 178 180 180 176 169 164 158 150 147 151 161 167 171 176 177 175 174 175 179 186 196 206 214 226 236 240 243 251 257 260 264 269 271 270 270 269 268 268 271 275 279 281 281 281 283
338 334 332 331 323 306 287 270 249 222 201 193 191 186 183 185 183 182 184 180 176 179 180 178 178 179 177 176 177 177 177 178 179 177 173 169 164 165 170 173 174 174 174 171 165 160 156 155 157 161 168 176 184 192 195 196 194 190 192 202 213 224 230 233 232 231 235 244 253 258 260 265 267 266 268 268 266 267 272 276 280 282 282 281 282
335 330 327 327 322 310 292 269 238 213 198 192 188 182 181 184 186 187 187 181 177 178 179 177 177 179 179 180 180 179 178 179 179 176 175 174 174 172 168 164 162 160 161 163 164 163 164 172 176 176 178 184 191 199 204 208 211 215 219 224 227 230 233 234 235 235 239 245 248 251 254 258 259 258 261 264 267 272 276 279 281 283 284 284 283
332 327 324 322 312 292 261 237 222 207 194 188 185 182 182 184 188 191 187 178 175 178 178 176 176 178 182 183 182 180 179 178 179 180 179 177 177 177 172 168 163 160 158 161 163 163 166 176 183 182 181 181 186 199 208 214 224 233 238 242 241 240 243 248 253 256 257 260 262 265 268 269 269 267 268 269 273 277 280 283 284 285 286 288 288
338 332 330 329 310 267 227 213 206 198 191 187 185 183 183 186 190 189 180 175 177 179 176 177 178 180 183 183 180 179 178 177 178 183 186 181 179 180 176 174 174 172 170 170 170 168 165 168 173 175 175 175 181 201 220 237 249 250 250 252 253 253 255 257 260 264 267 269 271 274 279 283 284 284 282 281 282 283 283 284 284 283 284 284 286
358 346 341 343 330 230 204 197 189 185 184 184 183 182 181 181 185 181 175 175 178 175 172 175 179 180 180 179 179 177 176 177 176 179 185 186 187 188 182 178 178 178 178 178 177 176 173 172 175 179 184 191 197 208 229 253 265 267 264 262 262 265 267 268 271 275 277 279 280 282 285 288 289 289 288 287 287 287 286 286 284 282 281 281 284
22 16 3 356 355 177 174 165 156 160 165 166 170 176 176 174 177 179 178 175 171 168 169 172 173 174 174 175 179 177 172 172 173 174 179 186 193 195 190 185 181 180 181 180 178 178 178 178 185 192 197 203 208 222 244 261 271 278 280 277 273 271 272 276 281 283 283 284 285 287 289 291 292 292 292 293 292 292 291 290 288 286 285 286 288
28 29 27 24 33 146 160 155 145 146 152 153 155 161 166 171 175 177 174 168 162 163 166 166 165 166 168 171 175 175 170 168 169 172 174 182 192 191 186 184 180 177 178 174 170 174 180 183 188 190 193 204 219 238 258 272 280 282 280 276 272 271 275 280 284 285 286 288 290 291 293 294 294 294 294 295 295 295 293 291 289 288 289 292 295
31 33 34 37 51 120 155 162 169 172 166 162 159 161 168 177 180 175 168 162 160 162 163 162 161 161 164 167 168 172 174 170 170 173 175 182 190 188 185 184 180 176 177 174 169 181 190 192 197 202 213 231 247 259 268 274 274 271 268 267 271 277 279 280 281 282 285 289 291 291 292 292 291 291 291 292 292 291 290 288 286 286 287 289 294
37 47 48 48 52 75 136 161 177 183 174 166 165 167 170 172 173 169 163 160 162 164 162 162 162 161 164 168 169 173 180 179 178 180 184 190 195 196 198 198 191 186 192 198 204 213 215 216 221 228 235 244 252 260 265 265 262 259 261 266 271 273 275 277 280 283 285 285 284 284 287 289 290 291 291 292 292 292 292 293 293 293 292 293 297
40 57 68 71 67 66 88 122 139 150 153 151 151 151 152 155 158 156 152 150 153 157 158 162 166 166 168 171 171 172 178 181 181 181 186 195 201 207 216 218 218 219 221 223 224 224 226 228 231 235 240 244 248 251 254 255 257 259 262 266 267 268 273 279 283 285 285 286 286 288 292 295 298 300 301 303 305 307 311 316 318 317 313 308 305
42 57 72 81 81 78 80 90 104 118 125 128 132 133 135 142 148 150 149 147 146 150 156 163 167 167 167 168 169 170 172 176 180 180 185 196 202 210 222 229 232 231 227 222 219 219 222 225 228 233 238 241 243 246 249 257 264 270 271 272 270 270 274 277 280 285 290 294 298 300 301 302 302 305 308 311 314 318 323 328 331 331 328 325 321
45 56 67 73 78 82 89 94 100 112 119 120 122 123 127 137 147 158 169 167 158 159 164 169 171 171 170 170 173 175 176 180 188 194 202 211 218 224 229 229 220 211 211 215 215 214 218 221 225 231 237 242 251 257 258 261 265 268 269 272 273 274 278 284 289 296 301 305 308 308 309 312 314 317 320 323 325 328 332 336 338 338 338 339 337
46 58 64 67 68 70 79 93 104 118 127 131 143 167 174 176 189 205 208 208 204 195 189 189 190 188 187 186 186 189 193 197 202 203 203 209 215 218 216 210 198 191 197 208 211 211 216 221 225 232 240 247 254 259 260 258 258 259 261 269 277 283 289 294 298 302 305 306 308 309 312 317 321 325 327 328 331 335 336 339 340 340 341 342 338
33 44 53 60 62 62 68 80 91 102 116 138 168 189 203 215 224 220 211 209 211 206 192 185 188 192 194 192 185 183 186 189 192 193 190 191 194 192 190 190 189 191 198 206 212 216 220 223 228 234 239 243 245 247 249 247 245 255 269 280 287 292 297 300 303 305 307 309 312 315 318 321 325 328 330 331 335 337 334 334 336 338 338 337 336
45 41 39 44 50 52 57 65 75 83 92 105 121 134 155 171 175 174 170 163 163 163 158 157 161 164 165 161 155 154 156 159 166 174 180 186 187 188 193 199 206 212 214 215 220 224 222 223 226 226 223 222 226 234 239 234 237 264 287 295 302 306 308 310 315 319 324 330 333 334 336 338 338 339 337 336 337 333 328 333 340 343 341 335 334
58 59 52 45 42 41 44 50 60 72 79 86 95 101 108 119 123 121 116 115 119 125 131 139 142 140 139 137 134 135 138 141 146 155 170 188 196 200 206 211 216 220 219 217 218 218 214 211 207 204 205 206 210 217 213 206 234 282 303 310 315 320 325 335 345 351 355 357 355 354 355 352 348 343 334 330 328 320 323 335 340 338 332 325 325
49 61 64 62 59 54 48 45 49 57 63 69 82 91 95 103 112 110 106 104 105 106 113 126 130 129 127 125 123 124 127 126 129 143 169 190 196 200 205 207 211 214 215 214 210 203 198 194 189 186 191 190 183 183 183 210 297 312 320 325 333 342 352 358 0 2 8 12 10 9 6 358 349 342 331 325 321 315 317 324 327 327 327 326 327
42 48 52 58 64 64 59 53 48 50 55 58 65 79 87 93 105 115 120 124 124 121 124 132 134 128 119 110 102 91 58 25 11 10 106 153 163 177 187 191 197 201 200 201 198 189 183 181 177 172 171 170 171 177 223 312 317 322 329 337 348 356 359 1 6 16 24 24 23 25 27 23 17 9 358 349 346 344 343 343 343 341 339 337 336
43 43 42 42 45 51 55 55 50 48 52 55 58 70 85 93 99 112 127 139 146 149 153 157 151 137 119 101 67 350 337 343 358 37 99 123 136 146 153 157 165 170 171 173 178 178 174 170 166 165 168 177 196 235 291 308 314 322 333 345 355 0 2 7 20 34 39 40 42 48 50 49 44 33 22 13 6 2 357 353 350 345 339 336 336
38 38 38 39 38 38 41 45 45 46 49 54 57 62 78 99 114 123 132 142 153 157 162 170 174 171 169 189 286 293 294 349 100 111 118 123 128 132 134 137 141 144 149 156 164 169 172 173 172 175 183 197 225 268 292 303 313 327 338 347 354 359 6 19 40 56 61 59 59 62 60 52 43 32 19 9 1 356 352 346 342 338 335 337 343
31 32 31 30 31 33 38 44 51 55 56 58 59 59 64 91 127 141 147 153 161 167 176 187 193 194 187 182 203 214 173 137 130 132 133 132 133 134 133 133 135 139 150 170 177 172 175 183 185 185 198 231 266 287 299 313 329 337 342 349 3 27 43 51 61 68 70 65 62 61 56 43 33 20 10 3 358 354 351 350 349 350 354 360 7
26 26 26 24 25 30 36 44 59 72 72 69 65 61 60 69 90 116 137 151 160 170 180 182 175 164 152 153 163 165 149 137 136 137 137 137 138 138 139 141 144 150 161 187 199 189 185 194 203 209 230 257 272 292 328 355 6 17 37 63 83 84 70 61 63 68 71 64 54 44 37 30 19 8 4 6 10 9 6 6 7 9 13 17 17
30 29 29 27 29 33 35 39 58 85 87 78 72 66 62 63 69 84 110 131 138 142 143 138 131 129 133 143 153 151 140 135 137 137 137 136 133 132 140 150 161 169 175 194 211 209 204 207 205 198 190 164 131 104 81 78 77 78 86 95 96 86 72 70 73 72 67 59 45 33 26 17 4 358 3 14 22 21 15 14 15 16 18 18 16
36 35 35 33 33 35 35 37 53 87 94 85 80 75 67 63 65 76 99 120 125 125 123 118 115 115 122 135 144 144 137 132 129 127 126 119 107 95 78 64 117 164 163 167 172 168 164 162 156 145 133 124 115 101 91 88 86 86 92 92 83 74 74 78 75 65 59 52 37 23 16 7 357 358 9 18 20 17 15 17 17 16 15 12 10
41 40 43 42 40 36 32 31 43 70 86 85 85 81 72 65 65 83 109 123 126 126 125 120 114 111 111 117 125 132 132 127 122 122 120 109 92 64 11 351 19 130 132 133 135 134 133 133 133 128 122 115 107 99 93 89 86 86 89 85 78 74 75 77 75 65 55 41 25 16 13 10 10 10 12 15 18 15 13 12 9 6 5 3 360
48 47 49 49 44 37 30 25 30 51 68 76 79 79 76 73 74 94 118 129 132 132 127 118 111 109 106 103 105 112 117 119 123 124 118 104 63 2 351 13 141 141 135 130 131 134 134 131 126 120 114 107 102 98 93 87 81 78 77 77 76 70 67 72 77 67 47 29 24 24 20 14 12 10 10 15 17 11 5 360 356 357 360 358 354
49 49 49 48 43 36 28 24 28 36 45 60 70 69 79 92 97 104 117 124 129 130 125 115 109 108 106 103 102 104 108 116 125 124 110 85 350 341 22 142 147 145 139 132 130 132 131 125 120 116 112 108 104 99 92 83 75 68 62 62 63 54 51 56 63 62 49 31 22 19 13 5 359 356 2 9 9 5 2 357 353 354 354 351 347
47 48 48 47 44 38 32 24 25 30 38 52 64 59 77 111 122 123 121 119 115 112 114 112 103 99 102 104 106 107 106 104 129 253 262 309 328 20 129 144 146 141 134 127 121 117 119 117 114 113 111 106 100 96 90 85 83 79 76 75 77 74 64 59 58 56 42 23 10 2 358 357 353 351 356 3 6 7 6 0 355 353 349 346 349
39 38 38 40 40 38 37 32 23 23 32 43 58 68 83 119 142 149 140 128 120 111 107 109 106 98 95 95 92 38 332 317 297 271 260 272 137 128 136 140 138 131 125 118 113 113 116 114 111 110 109 106 104 102 100 96 91 86 81 77 75 73 67 58 46 27 8 360 357 357 0 5 2 1 5 7 6 7 5 1 359 356 349 345 346
35 32 26 27 30 32 33 30 23 15 26 36 52 72 87 114 146 164 163 148 140 138 139 152 168 171 170 181 196 324 325 310 275 213 193 172 134 132 134 133 128 123 118 116 118 122 121 117 113 110 110 110 110 108 103 98 92 86 82 78 71 65 59 42 17 2 358 359 2 3 10 14 9 8 11 9 5 3 359 355 356 357 351 344 339
26 28 24 23 26 27 27 26 19 3 352 37 66 72 87 110 133 158 175 172 170 193 208 216 224 226 222 210 197 5 344 291 212 181 173 166 139 135 138 138 132 127 125 124 123 123 122 121 118 114 112 112 109 105 99 94 91 86 82 77 70 60 49 38 31 23 19 22 19 7 6 9 3 358 358 357 356 356 352 348 349 349 345 344 341
356 9 14 18 23 24 22 22 21 16 10 76 104 78 77 104 121 139 158 176 226 253 270 273 256 232 207 185 129 46 38 97 178 191 211 205 160 146 149 150 142 135 134 131 126 126 128 129 123 118 116 115 111 105 99 91 85 83 80 77 77 70 53 43 42 37 29 24 17 352 345 351 350 346 344 343 344 345 345 347 347 341 330 331 339
340 345 354 3 14 19 15 14 21 27 34 64 128 70 17 6 354 153 152 181 248 270 312 294 257 221 195 169 108 55 45 53 58 56 71 141 162 158 158 160 161 154 147 140 136 135 136 134 128 121 120 120 117 114 108 102 95 90 83 80 83 78 57 41 34 29 21 12 358 340 334 336 334 332 331 330 331 335 338 341 343 341 331 319 318
329 325 328 341 358 7 6 1 4 18 33 50 74 291 315 320 302 284 294 318 306 294 283 258 229 214 206 187 101 37 16 16 25 31 42 53 40 343 230 207 194 178 164 155 151 150 147 144 137 130 127 125 124 120 115 111 108 101 92 83 58 22 18 4 352 358 2 355 343 337 331 328 325 323 323 323 326 330 332 330 329 333 331 319 310
312 309 307 322 343 350 352 351 346 343 1 24 30 332 314 315 300 286 295 311 314 305 279 235 214 216 220 210 318 339 330 333 350 359 0 359 352 340 319 286 238 204 186 174 166 164 164 162 156 146 142 140 133 127 122 114 110 129 272 302 298 306 308 301 300 306 316 320 323 326 323 321 319 319 321 322 322 322 323 320 317 318 320 318 313
302 302 293 296 322 336 339 343 343 325 314 325 337 336 327 316 297 279 274 279 292 300 279 243 247 276 288 278 298 310 311 311 319 329 332 331 331 328 315 291 255 225 208 198 190 187 185 184 183 175 168 167 168 167 173 206 247 256 268 276 277 279 278 278 279 284 291 297 306 310 311 313 314 314 314 315 314 313 312 311 308 307 307 307 305
284 296 290 287 302 321 329 336 343 338 321 310 306 306 311 311 298 278 266 265 270 277 273 273 285 297 305 304 303 303 304 304 305 306 311 315 319 321 316 296 259 235 222 215 214 214 208 203 202 198 187 186 196 204 214 241 259 264 270 275 277 280 282 279 280 284 287 292 297 302 306 310 311 312 312 312 312 311 311 309 308 307 306 303 301
265 279 285 284 289 300 310 320 330 338 338 326 304 291 288 288 284 274 266 262 258 251 250 258 271 281 288 296 297 292 290 297 302 304 307 312 317 320 319 307 272 246 235 228 226 228 225 218 215 214 212 214 221 229 241 256 266 274 287 297 304 308 304 300 296 293 289 291 297 304 310 313 314 316 319 319 317 317 317 316 314 312 310 308 306
259 268 278 282 287 292 297 303 312 320 325 324 314 299 287 279 274 268 258 252 248 243 238 236 239 247 257 268 275 277 279 288 301 306 306 312 326 328 324 318 305 273 252 243 239 237 234 229 224 223 225 232 238 242 250 261 266 270 287 305 316 325 327 320 315 311 303 302 309 313 316 319 323 324 325 324 323 324 324 322 318 314 309 308 310
262 271 276 278 282 289 294 297 302 305 304 304 306 302 290 280 273 265 257 252 250 248 247 247 248 252 260 268 274 275 274 276 288 299 298 298 313 329 331 330 335 333 304 271 258 247 238 232 230 229 231 237 243 246 250 257 258 255 258 268 277 297 321 328 333 335 329 325 324 322 320 323 327 329 329 331 331 330 329 327 324 320 312 307 310
Height
1493 1493 1493 1493 1493 1493 1493 1494 1496 1496 1498 1500 1501 1502 1503 1504 1505 1507 1509 1511 1513 1515 1517 1520 1523 1524 1525 1526 1527 1528 1529 1530 1532 1533 1534 1535 1536 1537 1538 1540 1541 1542 1543 1544 1545 1546 1547 1548 1550 1551 1551 1552 1553 1554 1555 1556 1558 1559 1560 1562 1563 1564 1565 1567 1568 1568 1569 1570 1570 1570 1571 1571 1572 1572 1572 1573 1574 1574 1575 1575 1576 1576 1577 1577 1577
1492 1491 1491 1491 1491 1491 1491 1492 1494 1495 1497 1499 1499 1500 1502 1504 1505 1506 1509 1511 1512 1514 1515 1518 1521 1524 1525 1526 1527 1528 1529 1530 1531 1532 1533 1535 1536 1537 1538 1539 1540 1541 1542 1543 1544 1545 1546 1547 1548 1549 1550 1551 1552 1554 1555 1556 1557 1558 1559 1561 1563 1564 1565 1566 1567 1568 1569 1570 1570 1570 1571 1571 1571 1572 1572 1573 1573 1574 1575 1575 1575 1576 1576 1577 1577
1491 1491 1490 1490 1489 1489 1489 1491 1492 1494 1495 1497 1498 1499 1501 1502 1504 1505 1508 1510 1512 1513 1514 1516 1520 1523 1524 1525 1526 1527 1529 1530 1531 1532 1533 1534 1535 1536 1537 1539 1540 1541 1542 1543 1543 1544 1545 1546 1547 1548 1549 1551 1552 1553 1554 1556 1557 1558 1559 1560 1562 1564 1565 1566 1566 1567 1568 1569 1570 1570 1570 1571 1571 1572 1572 1572 1573 1574 1574 1575 1575 1575 1576 1576 1577
1490 1489 1489 1488 1488 1487 1488 1489 1490 1491 1492 1493 1495 1498 1499 1501 1503 1505 1507 1508 1511 1512 1513 1516 1520 1522 1524 1525 1526 1527 1528 1530 1531 1532 1533 1534 1535 1536 1537 1538 1539 1540 1541 1542 1543 1544 1545 1545 1546 1548 1549 1550 1552 1553 1554 1555 1557 1558 1559 1559 1561 1563 1564 1565 1566 1566 1567 1568 1569 1570 1570 1571 1571 1571 1572 1572 1573 1573 1574 1574 1574 1575 1575 1575 1576
1488 1487 1486 1486 1486 1485 1485 1486 1487 1489 1490 1491 1493 1495 1497 1500 1502 1504 1505 1508 1510 1512 1513 1516 1519 1521 1523 1524 1525 1526 1528 1529 1531 1532 1533 1533 1534 1535 1536 1537 1538 1540 1541 1542 1543 1544 1544 1545 1546 1547 1549 1550 1551 1552 1554 1555 1556 1557 1558 1560 1561 1563 1564 1564 1565 1566 1567 1568 1569 1570 1570 1570 1571 1571 1572 1572 1572 1573 1573 1574 1574 1574 1574 1575 1575
1485 1484 1483 1483 1483 1484 1484 1484 1486 1487 1488 1489 1491 1494 1497 1499 1501 1503 1505 1507 1509 1510 1512 1516 1519 1521 1522 1523 1524 1526 1528 1529 1530 1531 1532 1533 1534 1535 1536 1537 1538 1539 1540 1541 1542 1543 1544 1545 1546 1547 1549 1550 1551 1552 1554 1555 1556 1557 1559 1560 1561 1562 1563 1564 1564 1565 1566 1567 1568 1569 1570 1570 1570 1571 1571 1572 1572 1572 1573 1573 1573 1573 1574 1574 1574
1483 1482 1481 1480 1481 1482 1483 1483 1484 1486 1488 1489 1491 1494 1497 1499 1501 1503 1504 1506 1508 1510 1513 1516 1518 1519 1521 1522 1524 1526 1527 1529 1530 1531 1532 1533 1533 1534 1535 1536 1537 1538 1540 1541 1542 1543 1544 1545 1546 1548 1550 1551 1552 1553 1554 1555 1556 1557 1559 1560 1561 1561 1562 1563 1564 1565 1566 1567 1568 1568 1569 1570 1570 1570 1571 1571 1571 1571 1572 1572 1572 1572 1573 1573 1574
1481 1480 1479 1478 1479 1480 1481 1482 1483 1485 1487 1489 1491 1495 1497 1499 1501 1502 1504 1506 1508 1511 1514 1516 1517 1518 1520 1522 1523 1525 1527 1528 1529 1531 1532 1532 1533 1534 1535 1536 1537 1538 1539 1541 1542 1543 1544 1545 1547 1549 1551 1552 1553 1553 1554 1555 1556 1558 1559 1559 1560 1561 1561 1562 1563 1564 1565 1566 1567 1568 1569 1569 1569 1569 1570 1570 1570 1570 1571 1571 1571 1572 1572 1572 1572
1480 1478 1477 1477 1477 1478 1478 1480 1481 1483 1485 1487 1490 1493 1496 1499 1501 1501 1503 1505 1508 1511 1514 1515 1516 1517 1519 1521 1523 1525 1526 1528 1529 1530 1531 1532 1533 1533 1534 1535 1537 1538 1539 1540 1542 1543 1544 1546 1548 1549 1551 1552 1553 1553 1554 1555 1557 1558 1558 1559 1560 1561 1561 1562 1563 1564 1565 1566 1566 1567 1568 1568 1569 1568 1568 1569 1569 1569 1570 1570 1570 1570 1571 1570 1570
1478 1477 1476 1476 1476 1476 1476 1477 1478 1481 1483 1485 1488 1491 1494 1497 1499 1501 1502 1505 1508 1511 1513 1514 1516 1518 1519 1521 1522 1524 1526 1527 1528 1530 1531 1532 1533 1533 1534 1535 1537 1538 1539 1540 1542 1543 1545 1547 1548 1549 1551 1552 1553 1554 1555 1556 1557 1558 1559 1559 1560 1561 1562 1562 1563 1563 1564 1565 1565 1566 1566 1567 1567 1567 1568 1568 1568 1568 1569 1569 1569 1569 1569 1568 1568
1478 1476 1475 1475 1474 1474 1474 1475 1477 1480 1482 1484 1486 1489 1492 1494 1497 1499 1501 1504 1508 1510 1512 1514 1516 1518 1519 1520 1522 1524 1525 1527 1528 1530 1531 1532 1533 1534 1535 1536 1537 1538 1540 1541 1542 1543 1545 1547 1548 1550 1551 1553 1553 1554 1555 1556 1557 1558 1559 1560 1560 1561 1562 1562 1563 1563 1564 1564 1564 1565 1565 1566 1566 1566 1566 1567 1567 1567 1567 1567 1567 1568 1568 1567 1566
1478 1476 1475 1474 1473 1473 1473 1474 1476 1479 1482 1483 1485 1488 1490 1493 1496 1498 1500 1503 1506 1509 1511 1513 1515 1518 1519 1520 1522 1524 1525 1526 1528 1530 1531 1533 1534 1535 1536 1536 1537 1539 1540 1541 1542 1544 1545 1547 1549 1550 1552 1553 1554 1555 1556 1557 1558 1558 1559 1560 1560 1561 1561 1562 1562 1563 1563 1564 1564 1564 1564 1564 1564 1564 1564 1564 1565 1565 1566 1566 1565 1565 1565 1565 1565
1479 1477 1475 1473 1473 1472 1473 1474 1475 1478 1480 1481 1484 1486 1488 1492 1495 1497 1498 1502 1505 1508 1510 1512 1515 1517 1519 1520 1522 1523 1525 1526 1528 1529 1531 1533 1534 1535 1536 1537 1538 1539 1540 1542 1543 1544 1546 1547 1549 1550 1552 1553 1554 1555 1556 1557 1557 1558 1559 1559 1560 1560 1561 1561 1562 1562 1563 1563 1563 1563 1563 1564 1563 1563 1563 1563 1563 1563 1563 1563 1563 1563 1563 1563 1563
1481 1479 1476 1475 1474 1473 1473 1474 1474 1476 1478 1480 1482 1485 1487 1491 1494 1496 1498 1502 1504 1507 1509 1511 1514 1516 1518 1520 1522 1524 1525 1526 1528 1529 1531 1533 1535 1536 1537 1538 1539 1540 1541 1542 1544 1545 1546 1547 1549 1550 1552 1553 1554 1555 1556 1556 1557 1558 1558 1559 1559 1560 1560 1561 1561 1561 1562 1562 1562 1562 1562 1562 1562 1561 1561 1562 1562 1562 1562 1561 1561 1560 1560 1560 1560
1483 1481 1479 1477 1476 1475 1475 1475 1474 1475 1477 1479 1482 1484 1487 1490 1493 1495 1498 1501 1504 1506 1509 1511 1513 1516 1518 1520 1522 1524 1525 1527 1528 1529 1531 1533 1535 1536 1537 1538 1539 1540 1541 1543 1544 1545 1546 1548 1549 1550 1552 1553 1554 1555 1555 1556 1557 1557 1558 1558 1559 1560 1560 1560 1561 1561 1561 1561 1561 1561 1561 1561 1560 1560 1560 1560 1560 1560 1560 1559 1559 1558 1558 1558 1558
1485 1483 1482 1480 1479 1478 1477 1478 1477 1475 1476 1478 1482 1484 1487 1491 1494 1496 1498 1499 1502 1505 1508 1511 1514 1516 1518 1520 1522 1524 1525 1527 1528 1529 1531 1533 1534 1536 1537 1538 1539 1540 1541 1542 1544 1545 1546 1548 1549 1551 1552 1553 1554 1554 1555 1556 1556 1557 1557 1558 1558 1559 1559 1560 1560 1560 1560 1560 1560 1560 1560 1560 1559 1558 1558 1558 1558 1558 1557 1557 1557 1556 1556 1556 1556
1488 1486 1484 1483 1482 1481 1480 1480 1481 1479 1478 1481 1484 1487 1490 1492 1495 1497 1498 1498 1501 1504 1507 1511 1514 1516 1519 1521 1523 1524 1525 1527 1529 1530 1531 1533 1535 1536 1537 1538 1539 1541 1541 1542 1543 1545 1546 1547 1549 1550 1552 1553 1554 1554 1555 1556 1556 1556 1557 1557 1558 1559 1559 1559 1559 1559 1559 1559 1558 1558 1558 1558 1557 1556 1556 1556 1556 1555 1555 1555 1555 1555 1554 1554 1554
1491 1489 1488 1486 1485 1485 1483 1483 1484 1484 1484 1486 1488 1491 1493 1495 1497 1499 1500 1500 1502 1505 1508 1511 1514 1516 1519 1521 1523 1524 1525 1527 1529 1530 1532 1534 1535 1536 1537 1538 1539 1541 1542 1543 1544 1545 1546 1547 1549 1550 1551 1552 1553 1554 1555 1555 1555 1556 1556 1557 1557 1558 1558 1558 1558 1558 1557 1557 1557 1556 1556 1556 1555 1555 1554 1554 1554 1553 1553 1553 1553 1553 1553 1552 1552
1494 1493 1492 1490 1489 1488 1486 1486 1487 1488 1488 1489 1491 1493 1496 1498 1499 1501 1502 1503 1504 1506 1509 1512 1514 1517 1519 1521 1522 1524 1526 1527 1529 1531 1533 1534 1535 1536 1537 1538 1539 1541 1543 1544 1545 1546 1547 1548 1549 1550 1550 1551 1552 1552 1553 1554 1554 1555 1555 1556 1556 1556 1557 1557 1557 1556 1556 1556 1556 1555 1555 1554 1554 1554 1553 1553 1552 1552 1551 1551 1551 1551 1551 1550 1550
1498 1497 1496 1494 1493 1492 1490 1489 1489 1490 1491 1492 1493 1494 1496 1498 1500 1502 1503 1503 1505 1507 1509 1512 1515 1517 1519 1521 1522 1523 1526 1528 1529 1531 1533 1534 1535 1536 1537 1538 1539 1540 1542 1543 1544 1545 1547 1547 1548 1548 1549 1549 1550 1550 1551 1552 1553 1554 1554 1555 1555 1555 1555 1555 1555 1555 1555 1555 1554 1554 1553 1553 1552 1552 1551 1551 1550 1550 1550 1549 1549 1549 1549 1549 1548
1502 1500 1499 1498 1497 1496 1495 1493 1491 1491 1493 1494 1496 1497 1499 1501 1503 1505 1506 1505 1505 1507 1510 1513 1515 1517 1519 1521 1522 1523 1526 1528 1529 1531 1532 1533 1535 1535 1536 1537 1539 1540 1541 1542 1543 1545 1546 1546 1546 1547 1547 1548 1549 1549 1550 1551 1551 1552 1553 1553 1554 1554 1554 1553 1553 1553 1553 1553 1553 1552 1552 1551 1551 1550 1549 1549 1549 1548 1548 1548 1548 1547 1547 1547 1547
1506 1504 1502 1502 1501 1500 1499 1499 1497 1496 1497 1499 1500 1501 1503 1505 1507 1509 1510 1510 1509 1510 1512 1515 1516 1518 1520 1522 1523 1524 1526 1527 1529 1530 1532 1533 1534 1535 1536 1537 1538 1539 1540 1541 1543 1544 1544 1545 1545 1546 1546 1547 1548 1549 1549 1550 1550 1551 1552 1552 1553 1553 1553 1552 1552 1552 1552 1551 1551 1551 1551 1550 1549 1549 1548 1548 1547 1547 1547 1546 1546 1546 1546 1545 1545
1509 1507 1505 1504 1504 1503 1502 1502 1502 1502 1502 1503 1504 1504 1505 1507 1509 1511 1512 1513 1513 1513 1515 1517 1519 1520 1521 1522 1523 1525 1526 1527 1529 1530 1532 1533 1534 1535 1536 1537 1538 1539 1540 1541 1542 1543 1543 1544 1545 1545 1546 1546 1547 1548 1548 1549 1550 1550 1551 1551 1551 1551 1551 1551 1551 1551 1550 1550 1550 1550 1549 1549 1548 1548 1547 1547 1546 1546 1546 1545 1545 1545 1545 1544 1544
1512 1510 1508 1507 1506 1506 1505 1505 1505 1505 1505 1505 1506 1507 1508 1509 1510 1512 1513 1514 1515 1516 1517 1519 1520 1521 1522 1523 1524 1525 1526 1527 1529 1530 1532 1533 1534 1535 1536 1537 1538 1539 1540 1541 1541 1542 1542 1543 1544 1545 1545 1546 1547 1547 1547 1548 1549 1549 1550 1550 1550 1551 1550 1550 1550 1550 1550 1549 1549 1548 1548 1547 1547 1547 1546 1546 1545 1545 1545 1544 1544 1544 1544 1543 1543
1514 1513 1511 1510 1509 1509 1509 1508 1507 1507 1507 1507 1507 1508 1509 1510 1511 1513 1514 1515 1516 1517 1518 1519 1520 1521 1522 1523 1524 1525 1526 1527 1529 1530 1531 1532 1533 1534 1536 1537 1538 1539 1540 1540 1541 1541 1542 1543 1543 1544 1545 1546 1546 1546 1547 1547 1548 1549 1550 1550 1550 1550 1550 1549 1549 1549 1548 1548 1547 1547 1546 1546 1546 1545 1545 1545 1544 1544 1544 1543 1543 1543 1543 1542 1542
1516 1515 1514 1513 1513 1513 1512 1511 1510 1510 1510 1509 1509 1509 1510 1511 1512 1514 1515 1516 1517 1518 1519 1520 1521 1521 1522 1523 1524 1525 1526 1527 1529 1530 1531 1532 1533 1535 1536 1537 1538 1538 1539 1539 1540 1541 1542 1542 1543 1544 1544 1545 1546 1546 1547 1548 1548 1549 1550 1550 1549 1549 1549 1548 1548 1547 1547 1546 1546 1545 1545 1544 1544 1544 1544 1544 1544 1543 1543 1543 1542 1542 1542 1542 1541
1519 1518 1517 1517 1516 1516 1516 1514 1514 1513 1513 1512 1512 1512 1513 1514 1515 1516 1517 1518 1519 1520 1520 1521 1522 1523 1524 1525 1525 1526 1527 1529 1530 1531 1532 1533 1534 1535 1535 1536 1537 1537 1538 1539 1539 1540 1541 1541 1542 1543 1544 1544 1545 1546 1547 1548 1549 1549 1549 1549 1549 1548 1548 1547 1547 1546 1546 1545 1545 1544 1544 1544 1543 1543 1543 1543 1543 1543 1542 1542 1542 1542 1542 1541 1541
1522 1521 1520 1519 1519 1519 1519 1518 1517 1516 1515 1516 1516 1516 1516 1516 1517 1518 1519 1521 1522 1522 1523 1524 1525 1525 1526 1526 1527 1528 1529 1530 1531 1532 1533 1533 1534 1534 1535 1536 1536 1537 1537 1538 1539 1539 1540 1541 1542 1543 1544 1545 1545 1546 1547 1548 1548 1549 1549 1548 1548 1547 1547 1546 1546 1545 1545 1545 1544 1544 1544 1543 1543 1543 1543 1542 1542 1542 1542 1541 1541 1541 1541 1540 1540
1525 1523 1523 1522 1521 1521 1521 1521 1520 1519 1519 1519 1519 1518 1518 1519 1519 1520 1521 1523 1524 1524 1525 1526 1527 1527 1527 1528 1528 1529 1529 1530 1531 1532 1532 1533 1533 1534 1534 1535 1536 1536 1537 1538 1539 1539 1540 1541 1542 1543 1544 1545 1546 1546 1547 1548 1548 1548 1548 1548 1547 1547 1546 1546 1545 1545 1545 1544 1544 1544 1544 1543 1543 1543 1542 1542 1542 1541 1541 1541 1541 1540 1540 1539 1539
1527 1526 1525 1524 1523 1523 1522 1522 1522 1522 1522 1522 1521 1521 1521 1521 1522 1522 1523 1523 1524 1525 1527 1528 1528 1528 1529 1529 1529 1529 1530 1530 1531 1531 1532 1532 1533 1534 1534 1535 1536 1537 1538 1538 1539 1540 1541 1542 1543 1544 1545 1545 1546 1547 1547 1548 1548 1548 1547 1547 1547 1546 1546 1545 1545 1545 1545 1545 1544 1544 1544 1544 1543 1543 1542 1542 1541 1541 1541 1541 1540 1540 1539 1539 1538
1529 1528 1527 1526 1526 1525 1525 1524 1524 1524 1524 1524 1524 1523 1523 1523 1523 1524 1524 1525 1525 1526 1527 1528 1529 1529 1530 1530 1530 1530 1530 1531 1531 1532 1532 1533 1533 1534 1535 1536 1537 1538 1539 1540 1541 1541 1542 1543 1544 1544 1545 1546 1546 1547 1547 1547 1547 1547 1547 1546 1546 1546 1545 1545 1545 1545 1545 1545 1545 1545 1544 1544 1543 1543 1542 1542 1542 1541 1541 1541 1540 1540 1539 1539 1538
1531 1530 1530 1529 1528 1528 1527 1527 1527 1526 1526 1526 1526 1526 1525 1525 1524 1525 1525 1526 1526 1527 1528 1528 1529 1529 1530 1531 1531 1530 1531 1532 1532 1533 1533 1534 1535 1536 1537 1538 1539 1540 1541 1542 1542 1543 1543 1544 1544 1545 1545 1546 1546 1546 1546 1546 1546 1546 1546 1546 1546 1546 1546 1545 1546 1546 1546 1546 1545 1545 1545 1544 1544 1543 1543 1542 1542 1542 1541 1541 1540 1540 1539 1539 1538
1533 1532 1532 1531 1531 1530 1530 1530 1529 1529 1529 1528 1528 1528 1528 1527 1526 1526 1526 1526 1527 1527 1528 1528 1529 1530 1531 1531 1531 1531 1532 1533 1534 1534 1535 1536 1537 1538 1539 1540 1541 1541 1542 1543 1543 1543 1543 1544 1544 1545 1545 1545 1546 1546 1546 1546 1546 1546 1546 1546 1546 1546 1546 1546 1546 1546 1546 1546 1545 1545 1545 1544 1544 1543 1543 1543 1542 1542 1542 1541 1541 1540 1540 1539 1538
1535 1534 1533 1533 1532 1532 1532 1532 1531 1531 1531 1531 1530 1530 1530 1529 1529 1528 1528 1528 1528 1528 1529 1529 1530 1531 1532 1532 1532 1533 1534 1535 1536 1537 1538 1538 1539 1540 1541 1541 1541 1542 1542 1542 1543 1543 1543 1544 1544 1545 1545 1545 1545 1546 1546 1546 1546 1546 1546 1546 1546 1546 1546 1546 1546 1546 1546 1545 1545 1545 1545 1545 1544 1544 1543 1543 1543 1543 1542 1542 1542 1541 1541 1540 1539
1537 1536 1535 1535 1534 1534 1533 1533 1533 1533 1533 1533 1533 1532 1532 1531 1531 1531 1531 1530 1530 1530 1531 1531 1532 1533 1533 1534 1535 1535 1536 1537 1538 1539 1540 1540 1541 1541 1541 1541 1541 1541 1541 1542 1542 1543 1543 1544 1544 1544 1545 1545 1545 1546 1546 1546 1546 1546 1546 1546 1546 1546 1546 1546 1546 1546 1546 1546 1546 1546 1545 1545 1545 1544 1544 1544 1544 1544 1543 1543 1542 1542 1541 1540 1540
1539 1538 1537 1537 1536 1536 1535 1535 1535 1535 1535 1535 1535 1534 1534 1534 1533 1533 1533 1533 1533 1533 1533 1534 1534 1535 1536 1536 1537 1537 1538 1539 1540 1541 1541 1542 1542 1542 1542 1541 1541 1541 1541 1542 1542 1543 1543 1544 1544 1545 1545 1545 1546 1546 1546 1546 1546 1546 1546 1546 1546 1546 1546 1546 1546 1546 1546 1546 1546 1546 1546 1546 1546 1545 1545 1545 1545 1545 1544 1544 1543 1542 1542 1541 1540
1541 1540 1539 1538 1538 1538 1537 1537 1537 1537 1537 1537 1537 1536 1536 1536 1536 1536 1536 1536 1536 1536 1536 1536 1536 1537 1537 1538 1539 1539 1540 1541 1541 1542 1542 1542 1543 1543 1543 1542 1542 1542 1542 1543 1543 1544 1544 1545 1545 1545 1546 1546 1546 1546 1546 1546 1546 1546 1546 1546 1546 1546 1546 1546 1546 1546 1546 1546 1546 1546 1546 1546 1546 1546 1546 1546 1546 1545 1545 1544 1543 1543 1542 1541 1540
1543 1542 1541 1540 1540 1539 1539 1538 1538 1538 1538 1538 1538 1538 1538 1538 1538 1538 1538 1538 1538 1538 1538 1539 1539 1539 1539 1540 1541 1541 1542 1542 1542 1543 1543 1543 1543 1543 1543 1543 1543 1543 1543 1544 1544 1545 1545 1545 1545 1546 1546 1546 1546 1546 1546 1546 1546 1546 1546 1546 1546 1546 1546 1546 1546 1546 1547 1547 1547 1547 1547 1547 1547 1547 1547 1546 1546 1545 1545 1544 1543 1543 1542 1541 1541
1545 1544 1543 1542 1542 1541 1540 1540 1540 1539 1539 1539 1539 1539 1540 1540 1540 1540 1540 1540 1541 1541 1541 1541 1541 1541 1541 1542 1542 1543 1543 1543 1544 1544 1544 1544 1544 1544 1544 1544 1544 1544 1544 1544 1544 1545 1545 1545 1545 1546 1546 1546 1546 1546 1546 1547 1547 1547 1547 1547 1546 1546 1546 1546 1546 1547 1547 1547 1547 1547 1548 1548 1547 1547 1547 1546 1546 1545 1545 1544 1544 1543 1542 1541 1541
1546 1546 1545 1544 1544 1543 1542 1541 1541 1541 1540 1540 1540 1541 1541 1541 1541 1541 1542 1542 1542 1543 1543 1543 1543 1543 1543 1544 1544 1544 1544 1544 1544 1544 1544 1544 1544 1544 1544 1544 1544 1544 1545 1545 1545 1545 1545 1546 1546 1546 1547 1547 1547 1547 1547 1547 1547 1547 1547 1547 1546 1546 1546 1547 1547 1547 1547 1548 1548 1548 1548 1548 1547 1547 1547 1547 1546 1546 1545 1544 1544 1543 1542 1541 1541
1548 1547 1546 1546 1545 1544 1543 1543 1542 1542 1542 1542 1542 1542 1542 1542 1542 1543 1543 1543 1544 1544 1544 1544 1544 1544 1545 1545 1545 1545 1545 1545 1545 1545 1545 1545 1545 1545 1545 1545 1545 1545 1545 1545 1546 1546 1546 1547 1547 1547 1547 1548 1548 1548 1548 1548 1547 1547 1547 1547 1547 1547 1547 1547 1547 1548 1548 1548 1548 1548 1548 1548 1548 1548 1547 1547 1546 1546 1545 1545 1544 1543 1542 1541 1541
1549 1548 1548 1547 1546 1546 1545 1544 1543 1543 1542 1542 1543 1543 1543 1543 1543 1544 1544 1544 1545 1545 1545 1545 1545 1545 1545 1546 1546 1546 1546 1545 1545 1545 1545 1545 1545 1545 1545 1545 1546 1546 1546 1546 1547 1547 1547 1547 1548 1548 1548 1548 1548 1548 1548 1548 1547 1547 1547 1547 1547 1547 1547 1548 1548 1548 1548 1548 1548 1548 1548 1548 1548 1548 1547 1547 1546 1546 1545 1544 1544 1543 1542 1541 1540
1549 1549 1549 1548 1547 1546 1546 1545 1544 1543 1543 1543 1543 1544 1544 1544 1544 1544 1545 1545 1545 1545 1545 1545 1545 1545 1546 1546 1546 1546 1546 1546 1546 1546 1546 1546 1546 1546 1546 1546 1546 1547 1547 1547 1547 1548 1548 1548 1548 1548 1548 1548 1548 1548 1548 1548 1548 1548 1548 1548 1548 1548 1548 1548 1548 1548 1548 1548 1548 1548 1548 1548 1548 1547 1547 1547 1546 1546 1545 1544 1543 1542 1542 1541 1540
1550 1549 1549 1549 1548 1547 1546 1546 1546 1545 1544 1544 1544 1544 1545 1545 1545 1545 1545 1545 1545 1545 1545 1545 1545 1545 1546 1546 1547 1547 1547 1547 1546 1546 1546 1546 1546 1547 1547 1547 1547 1547 1547 1548 1548 1548 1548 1548 1548 1548 1548 1548 1548 1548 1548 1548 1548 1548 1548 1548 1549 1549 1549 1549 1549 1549 1548 1548 1548 1548 1548 1548 1547 1547 1547 1546 1546 1545 1544 1543 1543 1542 1541 1540 1540
1550 1549 1549 1549 1548 1548 1547 1547 1546 1546 1546 1545 1545 1545 1545 1545 1545 1545 1545 1545 1545 1545 1545 1545 1545 1546 1546 1547 1547 1547 1547 1547 1547 1547 1547 1547 1547 1547 1547 1547 1547 1548 1548 1548 1548 1548 1548 1548 1548 1548 1548 1548 1548 1548 1548 1548 1548 1548 1549 1549 1549 1549 1549 1549 1549 1549 1549 1548 1548 1548 1548 1547 1547 1546 1546 1545 1545 1544 1543 1542 1542 1541 1540 1540 1539
1549 1549 1549 1549 1549 1548 1548 1547 1547 1547 1547 1546 1546 1546 1546 1546 1545 1545 1545 1546 1546 1545 1545 1546 1546 1546 1547 1547 1547 1547 1547 1547 1547 1547 1547 1547 1547 1547 1547 1547 1547 1547 1548 1548 1548 1548 1548 1548 1548 1548 1548 1548 1548 1548 1548 1548 1548 1549 1549 1549 1549 1549 1549 1549 1549 1549 1548 1548 1548 1548 1547 1547 1546 1546 1545 1544 1543 1543 1542 1541 1541 1540 1539 1539 1538
1549 1549 1549 1549 1549 1548 1548 1548 1547 1547 1547 1547 1547 1546 1546 1546 1546 1545 1545 1546 1546 1546 1546 1546 1546 1547 1547 1547 1547 1547 1547 1547 1547 1547 1547 1547 1547 1547 1547 1547 1547 1547 1547 1548 1548 1548 1548 1548 1549 1548 1548 1548 1548 1549 1548 1548 1548 1548 1548 1548 1548 1548 1549 1549 1548 1548 1548 1548 1547 1547 1547 1546 1545 1545 1544 1543 1542 1541 1541 1540 1539 1538 1538 1537 1537
1549 1549 1549 1548 1548 1548 1548 1548 1547 1547 1547 1547 1547 1547 1546 1546 1546 1546 1546 1546 1546 1546 1546 1546 1547 1547 1547 1547 1547 1547 1547 1547 1547 1547 1547 1547 1547 1546 1546 1546 1546 1546 1547 1547 1547 1548 1548 1548 1548 1548 1548 1548 1548 1548 1548 1548 1548 1548 1548 1548 1548 1548 1548 1548 1548 1548 1547 1547 1547 1546 1546 1545 1544 1544 1543 1542 1541 1540 1539 1538 1537 1537 1536 1535 1535
1549 1548 1548 1548 1548 1548 1548 1548 1548 1547 1547 1546 1546 1546 1546 1546 1546 1546 1546 1546 1546 1546 1546 1546 1546 1546 1547 1547 1547 1547 1547 1547 1547 1547 1547 1547 1547 1546 1547 1546 1546 1546 1546 1547 1547 1547 1547 1547 1548 1548 1548 1548 1548 1548 1548 1548 1548 1548 1548 1547 1547 1547 1547 1547 1547 1547 1547 1546 1546 1545 1545 1544 1543 1542 1541 1540 1539 1538 1537 1536 1535 1535 1534 1534 1533
1548 1548 1548 1548 1548 1548 1548 1547 1547 1547 1547 1546 1546 1545 1545 1546 1546 1546 1546 1546 1545 1545 1545 1545 1545 1546 1546 1546 1547 1546 1547 1547 1547 1547 1547 1547 1547 1546 1546 1546 1546 1546 1546 1546 1546 1546 1546 1547 1547 1547 1547 1547 1547 1547 1547 1547 1547 1547 1547 1547 1547 1547 1547 1546 1546 1546 1546 1545 1545 1545 1544 1543 1542 1541 1540 1539 1538 1537 1536 1535 1534 1533 1532 1532 1532
1548 1548 1548 1548 1547 1547 1547 1547 1547 1547 1546 1546 1545 1545 1545 1545 1545 1545 1545 1545 1545 1545 1545 1545 1545 1545 1545 1545 1545 1545 1546 1546 1547 1547 1547 1546 1546 1546 1546 1546 1546 1546 1546 1545 1545 1545 1545 1546 1546 1546 1546 1547 1547 1547 1547 1547 1547 1546 1546 1546 1546 1546 1546 1546 1546 1546 1545 1545 1545 1544 1543 1543 1542 1541 1540 1538 1537 1536 1535 1533 1532 1532 1531 1531 1531